Surface/Atmospheric History
02/08/2018 18:03  to  2/9/2018 18:03
Change End Date:
To complete the export process:
1) Select all of the data below
2) Copy the data to the clipboard
3) Open a word processor such as Notepad
4) Paste the data into the word processor
5) Save the file

Date/Time (MST), SfStat, SfTemp, PvtTemp, SubTemp, AirTemp, RH, Dewpoint, AvgWindSpeed, GustWindSpeed, WindDirection, PrecipType, PrecipIntenisity
02/09/2018 18:00, Dry , -1.1 , , 15, -14, 82, -18, 10, 10, W, None, None
02/09/2018 17:54, Dry , -0.8 , , 15, -14, 81, -18, 9, 9, W, None, None
02/09/2018 17:50, Dry , -0.6 , , 15, -14, 81, -18, 9, 9, W, None, None
02/09/2018 17:40, Dry , -0.2 , , 15, -13, 83, -16, 9, 10, SW, None, None
02/09/2018 17:39, Dry , 0 , , 15, -13, 83, -16, 9, 10, SW, None, None
02/09/2018 17:30, Dry , 0.3 , , 15, -13, 83, -17, 9, 10, W, None, None
02/09/2018 17:24, Ice Warning , 0.7 , , 15, -13, 84, -16, 9, 10, W, None, None
02/09/2018 17:20, Ice Warning , 0.9 , , 15, -12, 84, -16, 9, 10, W, None, None
02/09/2018 17:10, Ice Warning , 1.2 , , 15, -13, 82, -17, 10, 10, W, None, None
02/09/2018 17:09, Ice Warning , 1.4 , , 15, -13, 82, -17, 9, 10, W, None, None
02/09/2018 17:00, Ice Warning , 1.9 , , 15, -12, 81, -16, 9, 9, W, None, None
02/09/2018 16:54, Ice Warning , 2.3 , , 15, -12, 79, -16, 7, 9, W, None, None
02/09/2018 16:50, Ice Warning , 2.7 , , 15, -11, 79, -15, 7, 9, W, None, None
02/09/2018 16:40, Ice Warning , 3.2 , , 15, -9, 79, -14, 9, 12, W, None, None
02/09/2018 16:39, Ice Warning , 3.4 , , 15, -9, 80, -13, 10, 13, W, None, None
02/09/2018 16:30, Ice Warning , 3.9 , , 15, -9, 79, -14, 12, 13, W, None, None
02/09/2018 16:24, Ice Warning , 4.3 , , 15, -9, 78, -14, 10, 12, W, None, None
02/09/2018 16:20, Ice Warning , 4.6 , , 15, -8, 79, -13, 11, 12, W, None, None
02/09/2018 16:10, Ice Warning , 5.5 , , 15, -7, 79, -11, 12, 14, W, None, None
02/09/2018 16:09, Ice Warning , 5.4 , , 15, -7, 79, -11, 12, 14, W, None, None
02/09/2018 15:59, Ice Warning , 6.3 , , 15, -5, 80, -10, 14, 15, W, None, None
02/09/2018 15:54, Ice Warning , 6.6 , , 15, -5, 79, -10, 12, 14, W, None, None
02/09/2018 15:49, Ice Warning , 7.2 , , 15, -4, 78, -9, 13, 14, W, None, None
02/09/2018 15:39, Ice Warning , 8.1 , , 15, -3, 76, -9, 12, 13, W, None, None
02/09/2018 15:39, Ice Warning , 8.1 , , 15, -3, 76, -9, 12, 13, W, None, None
02/09/2018 15:29, Ice Warning , 8.2 , , 15, -3, 75, -9, 11, 12, W, None, None
02/09/2018 15:24, Ice Warning , 8.2 , , 15, -3, 76, -9, 11, 12, W, None, None
02/09/2018 15:19, Ice Warning , 8.4 , , 15, -3, 76, -9, 12, 12, W, None, None
02/09/2018 15:09, Ice Warning , 8.6 , , 15, -3, 77, -8, 10, 12, W, None, None
02/09/2018 15:09, Ice Warning , 8.6 , , 15, -3, 77, -8, 9, 12, W, None, None
02/09/2018 14:59, Ice Warning , 8.6 , , 15, -3, 76, -8, 10, 12, W, None, None
02/09/2018 14:54, Ice Warning , 8.6 , , 15, -3, 76, -9, 10, 12, W, None, None
02/09/2018 14:49, Ice Warning , 8.8 , , 15, -3, 76, -9, 10, 12, W, None, None
02/09/2018 14:39, Ice Warning , 8.8 , , 15, -3, 75, -9, 11, 12, W, None, None
02/09/2018 14:39, Ice Warning , 8.8 , , 15, -3, 75, -9, 11, 12, W, None, None
02/09/2018 14:29, Ice Warning , 9 , , 15, -3, 76, -9, 11, 12, W, None, None
02/09/2018 14:24, Ice Warning , 9 , , 15, -3, 76, -9, 11, 12, W, None, None
02/09/2018 14:19, Ice Warning , 9 , , 15, -3, 76, -9, 10, 12, W, None, None
02/09/2018 14:09, Ice Warning , 8.8 , , 15, -3, 77, -9, 9, 12, W, None, None
02/09/2018 14:09, Ice Warning , 8.6 , , 15, -3, 77, -9, 9, 12, W, None, None
02/09/2018 13:59, Ice Warning , 8.6 , , 15, -4, 77, -9, 10, 12, W, None, None
02/09/2018 13:54, Ice Warning , 8.6 , , 15, -4, 76, -9, 11, 12, W, None, None
02/09/2018 13:49, Ice Warning , 8.6 , , 15, -4, 76, -9, 10, 12, W, None, None
02/09/2018 13:39, Ice Warning , 9 , , 15, -4, 76, -9, 9, 11, W, None, None
02/09/2018 13:39, Ice Warning , 9.1 , , 15, -4, 76, -9, 10, 11, W, None, None
02/09/2018 13:29, Ice Warning , 9.5 , , 15, -3, 74, -9, 9, 11, W, None, None
02/09/2018 13:24, Ice Warning , 10 , , 15, -3, 73, -9, 9, 11, W, None, None
02/09/2018 13:19, Ice Warning , 10.4 , , 15, -2, 74, -9, 10, 11, W, None, None
02/09/2018 13:09, Ice Warning , 10.6 , , 15, -2, 71, -9, 9, 11, W, None, None
02/09/2018 13:09, Ice Warning , 10.6 , , 15, -2, 70, -9, 9, 11, W, None, None
02/09/2018 12:59, Ice Warning , 10.4 , , 15, -2, 71, -9, 11, 12, W, None, None
02/09/2018 12:54, Ice Warning , 10.4 , , 15, -2, 72, -9, 11, 12, W, None, None
02/09/2018 12:49, Ice Warning , 10.6 , , 15, -2, 71, -9, 11, 12, W, None, None
02/09/2018 12:39, Ice Warning , 10.4 , , 15, -3, 73, -9, 10, 11, W, None, None
02/09/2018 12:39, Ice Warning , 10.4 , , 15, -3, 73, -9, 10, 11, W, None, None
02/09/2018 12:29, Ice Warning , 11.1 , , 15, -2, 73, -8, 9, 11, W, None, None
02/09/2018 12:24, Ice Warning , 10.9 , , 15, -2, 72, -9, 9, 10, W, None, None
02/09/2018 12:19, Ice Warning , 10.8 , , 15, -2, 72, -9, 9, 10, W, None, None
02/09/2018 12:09, Ice Warning , 10.9 , , 15, -2, 73, -9, 7, 9, W, Yes,
02/09/2018 12:09, Ice Warning , 10.9 , , 15, -2, 73, -9, 7, 9, W, Yes,
02/09/2018 11:59, Ice Warning , 10.8 , , 15, -3, 75, -9, 7, 9, W, None, None
02/09/2018 11:54, Ice Warning , 10.9 , , 15, -3, 76, -9, 8, 9, W, Yes,
02/09/2018 11:49, Ice Warning , 10.8 , , 15, -3, 74, -9, 7, 9, W, None, None
02/09/2018 11:39, Ice Warning , 10.9 , , 14, -2, 76, -8, 7, 9, W, None, None
02/09/2018 11:39, Ice Warning , 10.9 , , 14, -2, 76, -8, 7, 9, W, None, None
02/09/2018 11:29, Ice Warning , 10.8 , , 14, -2, 77, -8, 7, 9, W, None, None
02/09/2018 11:24, Ice Warning , 10.8 , , 14, -3, 77, -8, 7, 9, W, None, None
02/09/2018 11:19, Ice Warning , 10.8 , , 14, -2, 78, -7, 9, 9, W, None, None
02/09/2018 11:09, Ice Warning , 10.4 , , 14, -3, 79, -8, 7, 9, W, None, None
02/09/2018 11:08, Ice Warning , 10.4 , , 14, -3, 79, -8, 7, 9, W, None, None
02/09/2018 10:58, Ice Warning , 10.2 , , 14, -4, 80, -9, 9, 9, W, None, None
02/09/2018 10:54, Ice Warning , 10.4 , , 14, -4, 79, -9, 7, 9, W, None, None
02/09/2018 10:48, Ice Warning , 10.4 , , 14, -3, 79, -8, 7, 9, W, Yes,
02/09/2018 10:39, Ice Warning , 10.2 , , 14, -1, 80, -6, 7, 7, W, Yes,
02/09/2018 10:38, Ice Warning , 10.2 , , 14, -1, 80, -6, 7, 7, W, Yes,
02/09/2018 10:28, Ice Warning , 9.9 , , 14, -3, 80, -8, 6, 7, W, None, None
02/09/2018 10:24, Ice Warning , 9.7 , , 14, -3, 81, -8, 6, 7, W, Yes,
02/09/2018 10:18, Ice Warning , 9.3 , , 14, -4, 80, -9, 7, 7, SW, None, None
02/09/2018 10:09, Ice Warning , 8.6 , , 14, -4, 80, -9, 6, 7, SW, None, None
02/09/2018 10:08, Ice Warning , 8.6 , , 14, -4, 80, -9, 6, 7, SW, None, None
02/09/2018 09:58, Ice Warning , 8.2 , , 14, -5, 80, -9, 5, 7, SW, None, None
02/09/2018 09:54, Ice Warning , 8.2 , , 14, -4, 81, -9, 6, 7, W, Yes,
02/09/2018 09:48, Ice Warning , 8.1 , , 14, -5, 81, -9, 7, 7, W, None, None
02/09/2018 09:39, Ice Warning , 7.7 , , 14, -5, 81, -9, 6, 7, SW, None, None
02/09/2018 09:38, Ice Warning , 7.7 , , 14, -5, 81, -9, 6, 7, SW, None, None
02/09/2018 09:28, Ice Warning , 7.5 , , 14, -5, 81, -9, 3, 4, W, None, None
02/09/2018 09:24, Ice Warning , 7.5 , , 14, -5, 81, -9, 3, 3, SW, None, None
02/09/2018 09:18, Ice Warning , 7.3 , , 14, -4, 81, -8, 2, 3, SW, None, None
02/09/2018 09:09, Ice Warning , 7.2 , , 14, -4, 82, -8, 0, 2, SW, Yes,
02/09/2018 09:08, Ice Warning , 7.3 , , 14, -4, 82, -9, 1, 2, SW, Yes,
02/09/2018 08:58, Ice Warning , 6.8 , , 14, -5, 81, -9, 1, 2, SW, None, None
02/09/2018 08:54, Ice Warning , 6.6 , , 14, -4, 81, -8, 2, 2, W, Yes,
02/09/2018 08:48, Ice Warning , 6.6 , , 14, -4, 82, -8, 1, 3, W, Yes,
02/09/2018 08:39, Ice Warning , 6.3 , , 14, -4, 81, -8, 3, 4, W, Yes,
02/09/2018 08:38, Ice Warning , 6.3 , , 14, -4, 81, -8, 3, 4, W, Yes,
02/09/2018 08:28, Ice Warning , 6.1 , , 14, -4, 82, -8, 0, 0, NW, Yes,
02/09/2018 08:24, Ice Warning , 5.9 , , 14, -4, 82, -8, 0, 0, NE, None, None
02/09/2018 08:18, Ice Warning , 5.7 , , 14, -5, 82, -9, 0, 2, N, None, None
02/09/2018 08:09, Ice Warning , 5.5 , , 14, -6, 82, -10, 1, 3, N, Yes,
02/09/2018 08:08, Ice Warning , 5.5 , , 14, -6, 82, -10, 1, 3, N, Yes,
02/09/2018 07:58, Ice Warning , 5 , , 14, -6, 81, -10, 3, 4, N, Yes,
02/09/2018 07:53, Ice Warning , 5 , , 14, -6, 81, -10, 4, 4, N, None, None
02/09/2018 07:48, Ice Warning , 5 , , 14, -6, 81, -10, 3, 4, N, None, None
02/09/2018 07:39, Ice Warning , 4.8 , , 14, -7, 81, -11, 4, 6, N, Yes,
02/09/2018 07:38, Ice Warning , 4.8 , , 14, -7, 81, -11, 4, 6, N, None, None
02/09/2018 07:28, Ice Warning , 4.8 , , 14, -7, 81, -11, 1, 2, NW, Yes,
02/09/2018 07:24, Ice Warning , 4.8 , , 14, -7, 81, -11, 0, 2, N, Yes,
02/09/2018 07:18, Ice Warning , 4.6 , , 14, -7, 81, -11, 1, 4, N, Yes,
02/09/2018 07:08, Ice Warning , 4.6 , , 14, -7, 81, -12, 2, 4, NE, Yes,
02/09/2018 07:08, Ice Warning , 4.6 , , 14, -7, 81, -12, 2, 4, N, Yes,
02/09/2018 06:58, Ice Warning , 4.6 , , 14, -8, 81, -12, 1, 4, E, Yes,
02/09/2018 06:53, Ice Warning , 4.6 , , 14, -8, 81, -12, 2, 4, NE, Yes,
02/09/2018 06:48, Ice Warning , 4.6 , , 14, -8, 81, -12, 3, 4, N, Yes,
02/09/2018 06:39, Dry , 4.5 , , 14, -8, 81, -12, 2, 2, NE, Yes,
02/09/2018 06:38, Dry , 4.3 , , 14, -8, 81, -12, 2, 2, NE, Yes,
02/09/2018 06:28, Dry , 4.1 , , 14, -8, 81, -12, 1, 3, E, Yes,
02/09/2018 06:24, Dry , 4.1 , , 14, -8, 81, -12, 1, 3, E, Yes,
02/09/2018 06:17, Dry , 4.3 , , 14, -8, 81, -12, 2, 2, E, Yes,
02/09/2018 06:09, Dry , 3.9 , , 14, -8, 81, -12, 2, 4, NE, Yes,
02/09/2018 06:07, Dry , 3.9 , , 14, -8, 81, -12, 2, 4, NE, Yes,
02/09/2018 05:57, Dry , 3.9 , , 15, -8, 81, -12, 2, 4, E, None, None
02/09/2018 05:54, Dry , 3.9 , , 15, -8, 81, -12, 3, 4, NE, None, None
02/09/2018 05:47, Dry , 3.7 , , 15, -8, 81, -13, 2, 4, NE, None, None
02/09/2018 05:39, Dry , 3.6 , , 15, -9, 81, -13, 4, 7, NE, None, None
02/09/2018 05:37, Dry , 3.6 , , 15, -9, 81, -13, 4, 7, NE, None, None
02/09/2018 05:27, Dry , 3.4 , , 15, -9, 81, -13, 4, 5, NE, None, None
02/09/2018 05:24, Dry , 3.2 , , 15, -9, 81, -13, 3, 5, NE, None, None
02/09/2018 05:17, Dry , 3 , , 15, -9, 81, -13, 4, 5, NE, None, None
02/09/2018 05:09, Dry , 3 , , 15, -10, 80, -14, 2, 3, NE, None, None
02/09/2018 05:07, Dry , 2.8 , , 15, -10, 80, -14, 2, 2, NE, None, None
02/09/2018 04:57, Dry , 2.5 , , 15, -10, 80, -14, 1, 4, NE, None, None
02/09/2018 04:54, Dry , 2.3 , , 15, -9, 81, -13, 3, 4, NE, None, None
02/09/2018 04:47, Dry , 2.1 , , 15, -10, 79, -15, 2, 6, E, None, None
02/09/2018 04:39, Dry , 2.3 , , 15, -8, 82, -12, 3, 6, NW, None, None
02/09/2018 04:37, Dry , 2.3 , , 15, -8, 83, -12, 3, 6, N, None, None
02/09/2018 04:27, Dry , 2.1 , , 15, -11, 79, -16, 3, 5, NE, None, None
02/09/2018 04:24, Dry , 2.3 , , 15, -10, 80, -14, 1, 2, NE, None, None
02/09/2018 04:17, Dry , 2.5 , , 15, -10, 81, -14, 0, 1, NW, None, None
02/09/2018 04:09, Dry , 2.8 , , 15, -11, 79, -15, 0, 1, W, None, None
02/09/2018 04:07, Dry , 2.8 , , 15, -10, 79, -15, 0, 1, SW, None, None
02/09/2018 03:57, Dry , 2.8 , , 15, -8, 82, -12, 1, 2, SE, None, None
02/09/2018 03:54, Dry , 2.8 , , 15, -9, 82, -13, 1, 2, SE, None, None
02/09/2018 03:47, Dry , 2.8 , , 15, -9, 81, -13, 1, 2, S, None, None
02/09/2018 03:39, Dry , 3 , , 15, -7, 82, -11, 2, 2, SE, None, None
02/09/2018 03:37, Dry , 3 , , 15, -8, 82, -12, 1, 2, SE, None, None
02/09/2018 03:27, Dry , 2.8 , , 15, -8, 80, -12, 0, 1, S, None, None
02/09/2018 03:24, Dry , 2.8 , , 15, -8, 80, -12, 0, 3, S, None, None
02/09/2018 03:17, Dry , 3 , , 16, -7, 82, -10, 2, 4, N, None, None
02/09/2018 03:09, Dry , 3.2 , , 16, -7, 82, -11, 3, 6, N, None, None
02/09/2018 03:07, Dry , 3.2 , , 16, -8, 82, -12, 4, 6, N, None, None
02/09/2018 02:57, Dry , 3.2 , , 16, -8, 81, -13, 0, 1, E, None, None
02/09/2018 02:54, Dry , 3.4 , , 16, -9, 80, -13, 0, 1, E, None, None
02/09/2018 02:47, Dry , 3.6 , , 16, -8, 80, -12, 0, 1, E, None, None
02/09/2018 02:39, Dry , 3.7 , , 16, -7, 82, -10, 1, 2, E, None, None
02/09/2018 02:37, Dry , 3.7 , , 16, -7, 82, -11, 1, 2, E, None, None
02/09/2018 02:27, Dry , 3.6 , , 16, -7, 83, -10, 1, 4, N, None, None
02/09/2018 02:24, Dry , 3.7 , , 16, -7, 82, -11, 2, 7, N, Yes,
02/09/2018 02:17, Dry , 3.9 , , 16, -8, 80, -12, 6, 8, N, None, None
02/09/2018 02:09, Dry , 4.1 , , 16, -7, 81, -11, 7, 9, N, None, None
02/09/2018 02:07, Dry , 4.1 , , 16, -7, 82, -11, 7, 9, N, None, None
02/09/2018 01:57, Dry , 4.6 , , 16, -5, 82, -9, 9, 11, N, None, None
02/09/2018 01:54, Dry , 4.8 , , 16, -5, 82, -9, 9, 11, N, None, None
02/09/2018 01:47, Dry , 5 , , 16, -5, 83, -8, 9, 12, N, None, None
02/09/2018 01:39, Dry , 5.2 , , 17, -5, 83, -9, 9, 10, N, None, None
02/09/2018 01:37, Dry , 5.2 , , 17, -5, 83, -9, 9, 9, N, None, None
02/09/2018 01:27, Dry , 5.5 , , 17, -4, 83, -7, 7, 9, N, None, None
02/09/2018 01:24, Dry , 5.5 , , 17, -4, 83, -7, 7, 9, N, None, None
02/09/2018 01:16, Dry , 5.5 , , 17, -4, 83, -8, 7, 9, N, None, None
02/09/2018 01:09, Dry , 5.5 , , 17, -5, 83, -8, 9, 9, N, None, None
02/09/2018 01:06, Dry , 5.4 , , 17, -5, 83, -8, 6, 7, NW, None, None
02/09/2018 00:56, Dry , 5.2 , , 17, -5, 84, -9, 7, 7, N, None, None
02/09/2018 00:54, Dry , 5.2 , , 17, -6, 83, -10, 6, 7, N, None, None
02/09/2018 00:46, Dry , 5 , , 17, -7, 82, -10, 5, 6, N, None, None
02/09/2018 00:39, Dry , 5 , , 17, -6, 81, -10, 4, 6, NW, None, None
02/09/2018 00:36, Dry , 5 , , 17, -5, 82, -9, 2, 2, NW, None, None
02/09/2018 00:26, Dry , 5 , , 17, -6, 84, -9, 2, 2, N, None, None
02/09/2018 00:24, Dry , 5 , , 17, -6, 84, -10, 2, 2, N, None, None
02/09/2018 00:16, Dry , 5.2 , , 17, -7, 84, -11, 2, 2, N, None, None
02/09/2018 00:09, Dry , 5 , , 17, -9, 80, -14, 2, 3, NW, None, None
02/09/2018 00:06, Dry , 5.2 , , 17, -9, 78, -14, 2, 3, NW, None, None
02/08/2018 23:56, Dry , 5.5 , , 17, -6, 85, -10, 1, 3, NW, None, None
02/08/2018 23:54, Dry , 5.7 , , 17, -7, 83, -11, 2, 3, N, None, None
02/08/2018 23:46, Dry , 5.9 , , 17, -7, 82, -11, 2, 3, N, None, None
02/08/2018 23:39, Dry , 6.3 , , 17, -7, 81, -11, 3, 4, N, None, None
02/08/2018 23:36, Dry , 6.4 , , 17, -7, 80, -11, 3, 4, N, None, None
02/08/2018 23:26, Dry , 7 , , 18, -1, 84, -5, 3, 4, N, None, None
02/08/2018 23:24, Dry , 7.2 , , 18, -1, 85, -4, 3, 4, N, None, None
02/08/2018 23:16, Ice Warning , 7.5 , , 18, -1, 87, -4, 4, 4, N, None, None
02/08/2018 23:09, Ice Warning , 7.7 , , 18, -3, 83, -7, 4, 4, N, None, None
02/08/2018 23:06, Ice Warning , 7.7 , , 18, -3, 81, -8, 3, 4, N, None, None
02/08/2018 22:56, Ice Warning , 8.2 , , 18, -1, 83, -5, 2, 4, N, Yes,
02/08/2018 22:54, Ice Warning , 8.2 , , 18, -1, 84, -4, 2, 4, N, None, None
02/08/2018 22:46, Ice Warning , 8.4 , , 18, -1, 83, -5, 4, 4, N, None, None
02/08/2018 22:39, Ice Warning , 8.6 , , 18, -1, 84, -4, 4, 4, N, None, None
02/08/2018 22:36, Ice Warning , 8.8 , , 18, -1, 83, -4, 4, 4, N, None, None
02/08/2018 22:26, Ice Warning , 8.8 , , 18, 0, 83, -4, 3, 4, NE, Yes,
02/08/2018 22:24, Ice Warning , 9 , , 18, 0, 83, -4, 3, 6, NE, None, None
02/08/2018 22:16, Ice Watch , 9.1 , , 18, 0, 83, -3, 5, 7, NE, None, None
02/08/2018 22:09, Ice Watch , 9.1 , , 18, 1, 83, -3, 6, 7, NE, None, None
02/08/2018 22:06, Ice Watch , 9.3 , , 18, 1, 83, -3, 6, 7, NE, None, None
02/08/2018 21:56, Ice Watch , 9.5 , , 18, 1, 84, -3, 6, 7, NE, None, None
02/08/2018 21:54, Ice Watch , 9.5 , , 18, 1, 83, -3, 6, 9, NE, None, None
02/08/2018 21:46, Ice Watch , 9.5 , , 18, 1, 83, -3, 9, 12, N, None, None
02/08/2018 21:39, Ice Watch , 9.5 , , 18, 1, 83, -3, 11, 13, N, None, None
02/08/2018 21:36, Ice Watch , 9.5 , , 18, 1, 83, -3, 12, 13, N, None, None
02/08/2018 21:26, Ice Watch , 9.5 , , 18, 1, 83, -3, 12, 13, N, None, None
02/08/2018 21:24, Ice Watch , 9.5 , , 18, 1, 84, -3, 11, 12, N, None, None
02/08/2018 21:16, Ice Watch , 9.5 , , 18, 1, 85, -3, 10, 12, N, None, None
02/08/2018 21:09, Ice Watch , 9.5 , , 18, 1, 85, -3, 9, 11, N, None, None
02/08/2018 21:06, Ice Watch , 9.3 , , 19, 1, 85, -3, 9, 13, N, None, None
02/08/2018 20:56, Ice Watch , 9.3 , , 19, 1, 85, -3, 12, 16, N, None, None
02/08/2018 20:54, Ice Watch , 9.3 , , 19, 1, 85, -3, 13, 16, NE, None, None
02/08/2018 20:46, Ice Watch , 9.3 , , 19, 0, 85, -3, 12, 13, N, None, None
02/08/2018 20:39, Ice Watch , 9.3 , , 19, 0, 85, -3, 11, 12, N, None, None
02/08/2018 20:36, Ice Watch , 9.1 , , 19, 0, 85, -3, 9, 15, N, None, None
02/08/2018 20:26, Ice Watch , 9.3 , , 19, 0, 85, -3, 11, 13, NE, None, None
02/08/2018 20:24, Ice Watch , 9.1 , , 19, 0, 85, -3, 10, 15, NE, None, None
02/08/2018 20:16, Ice Watch , 9 , , 19, 0, 85, -4, 13, 16, NE, None, None
02/08/2018 20:09, Ice Watch , 9.1 , , 19, -1, 84, -4, 13, 16, NE, None, None
02/08/2018 20:05, Ice Watch , 9 , , 19, -1, 84, -5, 13, 16, NE, None, None
02/08/2018 19:55, Ice Watch , 9.5 , , 19, 0, 85, -4, 14, 16, NE, None, None
02/08/2018 19:54, Ice Watch , 9.5 , , 19, 0, 85, -4, 14, 16, NE, None, None
02/08/2018 19:45, Ice Watch , 9.9 , , 19, 0, 85, -3, 12, 16, NE, None, None
02/08/2018 19:39, Ice Watch , 10.4 , , 19, 0, 85, -4, 14, 17, NE, None, None
02/08/2018 19:35, Ice Watch , 10.6 , , 19, 0, 85, -3, 14, 17, NE, None, None
02/08/2018 19:25, Ice Watch , 10.8 , , 19, 0, 85, -3, 12, 14, NE, None, None
02/08/2018 19:24, Ice Watch , 10.9 , , 19, 1, 85, -3, 11, 13, NE, None, None
02/08/2018 19:15, Ice Watch , 11.3 , , 19, 1, 84, -3, 11, 16, N, None, None
02/08/2018 19:09, Ice Watch , 11.5 , , 20, 2, 85, -2, 13, 16, N, None, None
02/08/2018 19:05, Ice Watch , 11.5 , , 20, 2, 85, -2, 13, 16, N, None, None
02/08/2018 18:55, Ice Watch , 11.7 , , 20, 2, 85, -1, 13, 18, NE, None, None
02/08/2018 18:54, Ice Watch , 11.7 , , 20, 2, 85, -1, 14, 18, NE, None, None
02/08/2018 18:45, Ice Watch , 12 , , 20, 2, 85, -1, 17, 20, NE, None, None
02/08/2018 18:39, Ice Watch , 12.2 , , 20, 2, 84, -1, 18, 21, NE, None, None
02/08/2018 18:35, Ice Watch , 12.4 , , 20, 2, 85, -1, 17, 22, NE, None, None
02/08/2018 18:25, Ice Watch , 12.4 , , 20, 3, 84, -1, 21, 24, NE, None, None
02/08/2018 18:24, Ice Watch , 12.4 , , 20, 3, 84, -1, 20, 24, NE, None, None
02/08/2018 18:15, Ice Watch , 11.7 , , 20, 3, 86, 0, 19, 25, NE, None, None
02/08/2018 18:09, Ice Watch , 11.5 , , 20, 3, 85, 0, 21, 25, NE, None, None
02/08/2018 18:05, Ice Watch , 10.9 , , 20, 4, 85, 0, 18, 23, NE, None, None
Change End Date:

Copyright © 1998-2015 Vaisala, Inc.
All Rights Reserved
Send comments about the data to:
SCAN Web ® is a registered trademark of Vaisala, Inc.
SCAN Web Version 6.0